Date String (YYYY-MM-DD hh:mm:ss) UTC,Instrument flags,Ambient pressure (hPa),Sample flow (lpm),Bypass flow (lpm),Sample temperature (°C),Ambient temperature (°C),ASC tube jacket temperature (°C),LED temperature (°C),Box temperature (°C),Sample RH (%),Span deviation,Mass concentration (μg/m³),Mass concentration (μg/m³),Mass concentration (μg/m³)
DateTimeUTC,F1_M11,P_M11,Q1_M11,Q2_M11,T1_M11,T2_M11,T3_M11,T4_M11,T5_M11,U1_M11,ZSPAN_M11,X0_M11,X2_M11,X1_M11
2021-12-11 14:00:00,,0822.5,5.00,0.00,21.8,21.6,00.0,30.9,23.2,04.2,0000.0,0001.42,0000.91,0000.70
2021-12-11 14:01:00,,0822.6,5.01,0.00,21.7,21.2,00.0,30.9,23.1,04.3,0000.0,0001.93,0000.93,0000.71
2021-12-11 14:02:00,,0822.6,4.99,0.00,21.6,20.9,00.0,30.9,22.9,04.3,0000.0,0002.63,0001.00,0000.71
2021-12-11 14:03:00,,0822.6,5.01,0.00,21.5,20.7,00.0,30.8,22.8,04.3,0000.0,0002.64,0000.99,0000.71
2021-12-11 14:04:00,,0822.6,4.99,0.00,21.4,20.8,00.0,30.8,22.8,04.3,0000.0,0002.62,0001.00,0000.71
2021-12-11 14:05:00,,0822.5,5.00,0.00,21.5,21.6,00.0,30.8,23.1,04.3,0000.0,0002.57,0000.98,0000.72
2021-12-11 14:06:00,,0822.6,5.00,0.00,21.7,22.4,00.0,30.8,23.5,04.3,0000.0,0002.65,0001.02,0000.73
2021-12-11 14:07:00,,0822.6,4.99,0.00,21.9,22.9,00.0,30.9,23.7,04.3,0000.0,0002.75,0001.06,0000.74
2021-12-11 14:08:00,,0822.5,5.01,0.00,21.9,22.5,00.0,30.9,23.6,04.2,0000.0,0002.75,0001.07,0000.74
2021-12-11 14:09:00,,0822.5,5.00,0.00,21.8,22.1,00.0,30.9,23.4,04.1,0000.0,0002.63,0001.05,0000.73
2021-12-11 14:10:00,,0822.6,5.00,0.00,21.7,21.7,00.0,30.8,23.3,04.1,0000.0,0002.59,0001.03,0000.72
2021-12-11 14:11:00,,0822.6,5.01,0.00,21.7,21.5,00.0,30.8,23.2,04.2,0000.0,0002.55,0001.00,0000.72
2021-12-11 14:12:00,,0822.6,4.99,0.00,21.6,21.2,00.0,30.8,23.1,04.2,0000.0,0002.06,0000.98,0000.71
2021-12-11 14:13:00,,0822.6,5.01,0.00,21.5,21.0,00.0,30.8,23.0,04.2,0000.0,0001.40,0000.93,0000.70
2021-12-11 14:14:00,,0822.6,5.00,0.00,21.4,20.7,00.0,30.7,22.8,04.3,0000.0,0001.43,0000.95,0000.71
2021-12-11 14:15:00,,0822.7,4.99,0.00,21.4,21.1,00.0,30.7,22.9,04.3,0000.0,0001.49,0000.98,0000.71
2021-12-11 14:16:00,,0822.7,5.00,0.00,21.6,21.9,00.0,30.7,23.2,04.2,0000.0,0001.67,0001.02,0000.70
2021-12-11 14:17:00,,0822.7,5.01,0.00,21.7,22.7,00.0,30.8,23.6,04.2,0000.0,0001.65,0001.01,0000.70
2021-12-11 14:18:00,,0822.7,4.99,0.00,21.9,22.9,00.0,30.8,23.7,04.2,0000.0,0001.61,0000.99,0000.69
2021-12-11 14:19:00,,0822.7,5.00,0.00,21.9,22.4,00.0,30.8,23.6,04.0,0000.0,0001.65,0001.00,0000.68
2021-12-11 14:20:00,,0822.8,5.00,0.00,21.8,22.1,00.0,30.8,23.4,04.1,0000.0,0001.68,0001.00,0000.68
2021-12-11 14:21:00,,0822.8,5.01,0.00,21.7,21.7,00.0,30.8,23.2,04.2,0000.0,0001.69,0001.00,0000.68
2021-12-11 14:22:00,,0822.8,4.99,0.00,21.6,21.3,00.0,30.8,23.0,04.2,0000.0,0001.75,0001.01,0000.68
2021-12-11 14:23:00,,0822.7,5.02,0.00,21.5,21.0,00.0,30.7,22.9,04.2,0000.0,0001.79,0001.02,0000.67
2021-12-11 14:24:00,,0822.7,5.01,0.00,21.4,20.8,00.0,30.7,22.8,04.3,0000.0,0001.75,0001.01,0000.67
2021-12-11 14:25:00,,0822.7,4.99,0.00,21.4,20.7,00.0,30.7,22.7,04.3,0000.0,0001.71,0000.99,0000.66
2021-12-11 14:26:00,,0822.8,5.00,0.00,21.4,21.5,00.0,30.7,23.0,04.3,0000.0,0002.07,0000.94,0000.65
2021-12-11 14:27:00,,0822.8,5.01,0.00,21.6,22.4,00.0,30.7,23.4,04.3,0000.0,0002.15,0000.92,0000.65
2021-12-11 14:28:00,,0822.7,5.00,0.00,21.8,23.2,00.0,30.8,23.8,04.2,0000.0,0002.42,0000.92,0000.65
2021-12-11 14:29:00,,0822.7,5.00,0.00,21.9,23.0,00.0,30.8,23.8,04.2,0000.0,0003.31,0000.93,0000.65
2021-12-11 14:30:00,,0822.6,5.00,0.00,21.9,22.5,00.0,30.8,23.6,04.2,0000.0,0003.56,0000.93,0000.65
2021-12-11 14:31:00,,0822.7,5.01,0.00,21.8,22.1,00.0,30.8,23.4,04.2,0000.0,0004.33,0000.93,0000.65
2021-12-11 14:32:00,,0822.7,4.99,0.00,21.7,21.7,00.0,30.8,23.2,04.3,0000.0,0004.64,0000.95,0000.66
2021-12-11 14:33:00,,0822.8,5.01,0.00,21.6,21.3,00.0,30.8,23.0,04.3,0000.0,0005.05,0000.98,0000.66
2021-12-11 14:34:00,,0822.8,5.00,0.00,21.5,21.0,00.0,30.7,22.9,04.2,0000.0,0005.00,0000.98,0000.67
2021-12-11 14:35:00,,0822.8,5.00,0.00,21.5,20.8,00.0,30.7,22.8,04.3,0000.0,0005.11,0001.02,0000.68
2021-12-11 14:36:00,,0822.9,5.00,0.00,21.4,20.6,00.0,30.7,22.7,04.3,0000.0,0005.17,0001.03,0000.67
2021-12-11 14:37:00,,0822.8,5.00,0.00,21.4,21.2,00.0,30.7,22.9,04.3,0000.0,0005.00,0001.04,0000.68
2021-12-11 14:38:00,,0822.8,5.00,0.00,21.6,22.2,00.0,30.7,23.3,04.3,0000.0,0005.64,0001.04,0000.68
2021-12-11 14:39:00,,0822.8,5.00,0.00,21.7,23.0,00.0,30.7,23.7,04.3,0000.0,0005.34,0001.00,0000.68
2021-12-11 14:40:00,,0822.8,5.00,0.00,21.9,23.1,00.0,30.8,23.8,04.3,0000.0,0004.45,0001.01,0000.69
2021-12-11 14:41:00,,0822.8,5.00,0.00,21.9,22.7,00.0,30.8,23.6,04.3,0000.0,0004.49,0000.98,0000.69
2021-12-11 14:42:00,,0822.8,5.01,0.00,21.9,22.3,00.0,30.8,23.5,04.4,0000.0,0003.76,0000.98,0000.70
2021-12-11 14:43:00,,0822.8,5.00,0.00,21.8,21.9,00.0,30.8,23.4,04.4,0000.0,0003.42,0000.98,0000.70
2021-12-11 14:44:00,,0822.9,5.00,0.00,21.8,21.6,00.0,30.8,23.2,04.4,0000.0,0003.09,0000.97,0000.71
2021-12-11 14:45:00,,0822.9,5.01,0.00,21.7,21.3,00.0,30.8,23.1,04.4,0000.0,0003.10,0000.99,0000.70
2021-12-11 14:46:00,,0822.8,5.00,0.00,21.6,21.2,00.0,30.8,23.1,04.5,0000.0,0003.02,0000.96,0000.70
2021-12-11 14:47:00,,0822.9,5.00,0.00,21.6,21.0,00.0,30.7,23.0,04.4,0000.0,0003.06,0000.98,0000.71
2021-12-11 14:48:00,,0823.0,5.00,0.00,21.5,20.9,00.0,30.7,22.9,04.5,0000.0,0002.84,0000.96,0000.70
2021-12-11 14:49:00,,0823.0,5.02,0.00,21.5,20.8,00.0,30.7,22.9,04.5,0000.0,0001.93,0000.93,0000.70
2021-12-11 14:50:00,,0823.0,4.99,0.00,21.5,21.1,00.0,30.7,23.0,04.5,0000.0,0001.95,0000.93,0000.69
2021-12-11 14:51:00,,0823.0,5.00,0.00,21.6,22.1,00.0,30.7,23.4,04.4,0000.0,0001.84,0000.91,0000.68
2021-12-11 14:52:00,,0823.0,5.00,0.00,21.8,23.0,00.0,30.8,23.8,04.4,0000.0,0001.44,0000.92,0000.67
2021-12-11 14:53:00,,0823.0,4.99,0.00,21.9,23.0,00.0,30.8,23.8,04.5,0000.0,0001.44,0000.92,0000.67
2021-12-11 14:54:00,,0823.1,5.02,0.00,21.9,22.5,00.0,30.8,23.6,04.5,0000.0,0001.40,0000.89,0000.66
2021-12-11 14:55:00,,0823.1,5.00,0.00,21.8,22.1,00.0,30.8,23.4,04.5,0000.0,0001.44,0000.90,0000.66
2021-12-11 14:56:00,,0823.0,5.00,0.00,21.7,21.8,00.0,30.8,23.2,04.5,0000.0,0001.91,0000.93,0000.67
2021-12-11 14:57:00,,0823.0,5.00,0.00,21.7,21.5,00.0,30.8,23.0,04.6,0000.0,0002.95,0000.94,0000.67
2021-12-11 14:58:00,,0823.0,4.98,0.00,21.6,21.2,00.0,30.8,23.0,04.6,0000.0,0002.95,0000.91,0000.67
2021-12-11 14:59:00,,0823.0,5.01,0.00,21.5,21.1,00.0,30.7,23.0,04.6,0000.0,0002.92,0000.90,0000.66
